When you browse on this site, cookies collect data to enhance your experience and personalize the content and advertising you see.
Visit our Privacy Policy to learn more. By continuing to use the site, you agree to this use of cookies and data.
  • In Lithuania
  • List of Countries
  • For 7 days
  • Water Temperature
  • Satellite Maps
  • Weather Map
  • Weather Widgets
  • user-avatar
    Login

    Hourly Weather Faridkot

    Today, 16 February, Saturday

    Time Temperature Precipitation Wind Pressure Humidity
    00:00 +10°C° 0 mm 2 mps 744 mmHg 88%
    01:00 +11°C° 0 mm 1 mps 744 mmHg 89%
    02:00 +11°C° 0 mm 1 mps 744 mmHg 90%
    03:00 +10°C° 0 mm 1 mps 744 mmHg 91%
    04:00 +9°C° 0 mm 2 mps 744 mmHg 91%
    05:00 +9°C° 0 mm 2 mps 744 mmHg 92%
    06:00 +10°C° 0 mm 2 mps 744 mmHg 90%
    07:00 +10°C° 0 mm 2 mps 745 mmHg 88%
    08:00 +12°C° 0 mm 1 mps 745 mmHg 86%
    09:00 +14°C° 0 mm 2 mps 745 mmHg 78%
    10:00 +17°C° 0 mm 2 mps 745 mmHg 69%
    11:00 +19°C° 0 mm 2 mps 746 mmHg 61%
    12:00 +20°C° 0 mm 2 mps 745 mmHg 56%
    13:00 +21°C° 0 mm 2 mps 745 mmHg 52%
    14:00 +23°C° 0 mm 2 mps 744 mmHg 47%
    15:00 +21°C° 0 mm 2 mps 744 mmHg 51%
    16:00 +20°C° 0 mm 2 mps 744 mmHg 56%
    17:00 +20°C° 0 mm 2 mps 743 mmHg 60%
    18:00 +19°C° 0 mm 1 mps 743 mmHg 65%
    19:00 +16°C° 0 mm 1 mps 744 mmHg 71%
    20:00 +14°C° 0 mm 1 mps 744 mmHg 76%
    21:00 +13°C° 0 mm 1 mps 744 mmHg 78%
    22:00 +13°C° 0 mm 1 mps 744 mmHg 80%
    23:00 +12°C° 0 mm 1 mps 744 mmHg 82%

    Tomorrow, 17 February, Sunday

    Time Temperature Precipitation Wind Pressure Humidity
    00:00 +12°C° 0 mm 1 mps 744 mmHg 82%
    01:00 +12°C° 0 mm 1 mps 743 mmHg 82%
    02:00 +12°C° 0 mm 1 mps 743 mmHg 81%
    03:00 +11°C° 0 mm 1 mps 743 mmHg 83%
    04:00 +11°C° 0 mm 1 mps 742 mmHg 84%
    05:00 +11°C° 0 mm 1 mps 742 mmHg 86%
    06:00 +10°C° 0 mm 2 mps 743 mmHg 82%
    07:00 +12°C° 0 mm 2 mps 743 mmHg 79%
    08:00 +13°C° 0 mm 2 mps 743 mmHg 75%
    09:00 +15°C° 0 mm 2 mps 743 mmHg 65%
    10:00 +18°C° 0 mm 2 mps 743 mmHg 56%
    11:00 +20°C° 0 mm 2 mps 743 mmHg 46%
    12:00 +21°C° 0 mm 2 mps 743 mmHg 43%
    13:00 +23°C° 0 mm 2 mps 742 mmHg 39%
    14:00 +24°C° 0 mm 2 mps 741 mmHg 36%
    15:00 +23°C° 0 mm 2 mps 741 mmHg 40%
    16:00 +22°C° 0 mm 1 mps 741 mmHg 45%
    17:00 +21°C° 0 mm 1 mps 740 mmHg 50%
    18:00 +20°C° 0.1 mm 1 mps 740 mmHg 55%
    19:00 +17°C° 0.1 mm 2 mps 740 mmHg 59%
    20:00 +16°C° 0.1 mm 3 mps 741 mmHg 64%
    21:00 +14°C° 0.1 mm 3 mps 741 mmHg 66%
    22:00 +14°C° 0.1 mm 3 mps 741 mmHg 69%
    23:00 +14°C° 0.1 mm 2 mps 741 mmHg 72%

    Day after tomorrow, 18 February, Monday

    Time Temperature Precipitation Wind Pressure Humidity
    00:00 +14°C° 0 mm 2 mps 741 mmHg 70%
    01:00 +14°C° 0 mm 2 mps 740 mmHg 68%
    02:00 +14°C° 0 mm 2 mps 740 mmHg 65%
    03:00 +13°C° 0 mm 2 mps 740 mmHg 66%
    04:00 +12°C° 0 mm 2 mps 740 mmHg 67%
    05:00 +11°C° 0 mm 1 mps 739 mmHg 68%
    06:00 +12°C° 0 mm 1 mps 740 mmHg 67%
    07:00 +13°C° 0 mm 1 mps 740 mmHg 66%
    08:00 +14°C° 0 mm 1 mps 741 mmHg 65%
    09:00 +15°C° 0 mm 1 mps 741 mmHg 61%
    10:00 +16°C° 0 mm 1 mps 741 mmHg 57%
    11:00 +18°C° 0 mm 1 mps 741 mmHg 54%
    12:00 +18°C° 0 mm 1 mps 740 mmHg 54%
    13:00 +19°C° 0 mm 1 mps 740 mmHg 55%
    14:00 +19°C° 0 mm 1 mps 739 mmHg 56%
    15:00 +19°C° 0 mm 1 mps 739 mmHg 58%
    16:00 +19°C° 0 mm 1 mps 738 mmHg 60%
    17:00 +18°C° 0 mm 1 mps 738 mmHg 62%
    18:00 +16°C° 0 mm 2 mps 738 mmHg 65%
    19:00 +15°C° 0 mm 2 mps 739 mmHg 67%
    20:00 +13°C° 0 mm 2 mps 739 mmHg 70%
    21:00 +13°C° 0 mm 2 mps 739 mmHg 73%
    22:00 +12°C° 0 mm 1 mps 739 mmHg 77%
    23:00 +11°C° 0 mm 1 mps 740 mmHg 81%

    19 February, Tuesday

    Time Temperature Precipitation Wind Pressure Humidity
    00:00 +11°C° 0 mm 1 mps 739 mmHg 80%
    01:00 +11°C° 0 mm 1 mps 739 mmHg 80%
    02:00 +10°C° 0 mm 2 mps 739 mmHg 80%
    03:00 +10°C° 0 mm 2 mps 739 mmHg 80%
    04:00 +10°C° 0 mm 2 mps 740 mmHg 80%
    05:00 +9°C° 0 mm 2 mps 740 mmHg 80%
    06:00 +10°C° 0 mm 2 mps 740 mmHg 79%
    07:00 +12°C° 0 mm 2 mps 741 mmHg 78%
    08:00 +13°C° 0 mm 2 mps 742 mmHg 77%
    09:00 +16°C° 0 mm 2 mps 742 mmHg 70%
    10:00 +18°C° 0 mm 2 mps 743 mmHg 63%
    11:00 +21°C° 0 mm 3 mps 743 mmHg 56%
    12:00 +22°C° 0 mm 3 mps 743 mmHg 53%
    13:00 +24°C° 0 mm 3 mps 742 mmHg 51%
    14:00 +25°C° 0 mm 3 mps 742 mmHg 49%
    15:00 +24°C° 0 mm 3 mps 742 mmHg 55%
    16:00 +22°C° 0 mm 3 mps 742 mmHg 61%
    17:00 +21°C° 0 mm 3 mps 741 mmHg 67%
    18:00 +19°C° 0 mm 3 mps 742 mmHg 74%
    19:00 +17°C° 0 mm 3 mps 742 mmHg 81%
    20:00 +14°C° 0 mm 3 mps 742 mmHg 88%
    21:00 +14°C° 0 mm 3 mps 742 mmHg 89%
    22:00 +14°C° 0 mm 3 mps 742 mmHg 90%
    23:00 +13°C° 0 mm 3 mps 742 mmHg 91%

    20 February, Wednesday

    Time Temperature Precipitation Wind Pressure Humidity
    00:00 +13°C° 0 mm 3 mps 742 mmHg 90%
    01:00 +13°C° 0 mm 3 mps 742 mmHg 89%
    02:00 +13°C° 0 mm 3 mps 742 mmHg 88%
    03:00 +13°C° 0.1 mm 3 mps 742 mmHg 85%
    04:00 +14°C° 0.1 mm 3 mps 742 mmHg 82%
    05:00 +14°C° 0.1 mm 3 mps 742 mmHg 79%
    06:00 +14°C° 0.3 mm 3 mps 743 mmHg 82%
    07:00 +14°C° 0.3 mm 3 mps 743 mmHg 85%
    08:00 +14°C° 0.3 mm 3 mps 744 mmHg 88%
    09:00 +17°C° 0.3 mm 4 mps 744 mmHg 84%
    10:00 +18°C° 0.3 mm 4 mps 744 mmHg 79%
    11:00 +20°C° 0.3 mm 5 mps 744 mmHg 75%
    12:00 +21°C° 0 mm 5 mps 743 mmHg 70%
    13:00 +23°C° 0 mm 5 mps 743 mmHg 64%
    14:00 +25°C° 0 mm 5 mps 742 mmHg 59%
    15:00 +23°C° 0.3 mm 5 mps 742 mmHg 64%
    16:00 +22°C° 0.3 mm 5 mps 742 mmHg 70%
    17:00 +21°C° 0.3 mm 5 mps 741 mmHg 75%
    18:00 +20°C° 0.6 mm 4 mps 742 mmHg 79%
    19:00 +18°C° 0.6 mm 4 mps 742 mmHg 82%
    20:00 +17°C° 0.6 mm 3 mps 743 mmHg 86%
    21:00 +17°C° 0.4 mm 4 mps 743 mmHg 88%
    22:00 +16°C° 0.4 mm 5 mps 743 mmHg 89%
    23:00 +15°C° 0.4 mm 6 mps 743 mmHg 91%

    21 February, Thursday

    Time Temperature Precipitation Wind Pressure Humidity
    00:00 +15°C° 3.5 mm 5 mps 743 mmHg 93%
    01:00 +16°C° 3.5 mm 3 mps 743 mmHg 94%
    02:00 +16°C° 3.5 mm 2 mps 742 mmHg 96%
    03:00 +16°C° 0.7 mm 2 mps 742 mmHg 96%
    04:00 +15°C° 0.7 mm 2 mps 742 mmHg 96%
    05:00 +15°C° 0.7 mm 2 mps 742 mmHg 97%
    06:00 +15°C° 0.5 mm 2 mps 743 mmHg 96%
    07:00 +16°C° 0.5 mm 3 mps 744 mmHg 95%
    08:00 +15°C° 0.5 mm 4 mps 745 mmHg 94%
    09:00 +17°C° 0.6 mm 4 mps 745 mmHg 92%
    10:00 +16°C° 0.6 mm 5 mps 745 mmHg 90%
    11:00 +17°C° 0.6 mm 6 mps 745 mmHg 88%
    12:00 +19°C° 0.3 mm 5 mps 744 mmHg 85%
    13:00 +20°C° 0.3 mm 5 mps 744 mmHg 81%
    14:00 +21°C° 0.3 mm 4 mps 743 mmHg 77%
    15:00 +20°C° 1 mm 4 mps 743 mmHg 81%
    16:00 +19°C° 1 mm 4 mps 743 mmHg 85%
    17:00 +18°C° 1 mm 3 mps 743 mmHg 89%
    18:00 +17°C° 0.3 mm 3 mps 744 mmHg 91%
    19:00 +16°C° 0.3 mm 3 mps 744 mmHg 92%
    20:00 +14°C° 0.3 mm 3 mps 744 mmHg 94%
    21:00 +14°C° 0 mm 3 mps 744 mmHg 94%
    22:00 +15°C° 0 mm 2 mps 745 mmHg 94%
    23:00 +14°C° 0 mm 2 mps 745 mmHg 93%
    Show more